Weather History for PHNY - November, 2013

Change the Weather History Date:

Saturday, November 2, 2013

  Actual Average Record
Temperature  
Mean Temperature 74 °F -  
Max Temperature 82 °F 81 °F 86 °F (1996)
Min Temperature 66 °F 64 °F 57 °F (1955)
Cooling Degree Days 9    
Growing Degree Days 24 (Base 50)    
Moisture  
Dew Point 64 °F    
Average Humidity 74    
Maximum Humidity 93    
Minimum Humidity 54    
Precipitation  
Precipitation 0.00 in - - ()
Sea Level Pressure  
Sea Level Pressure 30.04 in    
Wind  
Wind Speed 14 mph (NE)    
Max Wind Speed 25 mph    
Max Gust Speed 33 mph    
Visibility 10 miles    
Events      
Averages and records for this station are not official NWS values.
T = Trace of Precipitation, MM = Missing Value Source: NWS Daily Summary

Daily Weather History Graph

Daily Weather History Graph

Search for Another Location

Airport or City:

Trip Planner

Search our weather history database for the weather conditions in past years. The results will help you decide how hot, cold, wet, or windy it might be!

Date:

Astronomy

Nov. 02, 2013 Rise Set
Actual Time 6:30 AM HST 5:51 PM HST
Civil Twilight 6:08 AM HST 6:14 PM HST
Nautical Twilight 5:41 AM HST 6:40 PM HST
Astronomical Twilight 5:15 AM HST 7:06 PM HST
Moon 5:44 AM HST 5:29 PM HST
Length of Visible Light 12h 06m
Length of Day
11h 20m
Waning Crescent, 1% of the Moon is Illuminated
Nov 2
Waning Crescent
Nov 3
New
Nov 9
First Quarter
Nov 17
Full
Nov 25
Last Quarter

Hourly Weather History & Observations

Time (HST) Temp. Heat Index Dew Point Humidity Pressure Visibility Wind Dir Wind Speed Gust Speed Precip Events Conditions
12:56 AM 70.9 °F - 65.8 °F 84% 30.02 in 10.0 mi NE 19.6 mph 25.3 mph N/A   Clear
1:56 AM 70.0 °F - 64.9 °F 84% 30.01 in 10.0 mi ENE 18.4 mph - N/A   Clear
2:56 AM 70.0 °F - 65.8 °F 87% 30.00 in 10.0 mi ENE 17.3 mph - N/A   Clear
3:56 AM 70.0 °F - 64.9 °F 84% 30.00 in 10.0 mi ENE 11.5 mph - N/A   Clear
4:56 AM 66.9 °F - 63.9 °F 90% 30.01 in 10.0 mi East 4.6 mph - N/A   Clear
5:18 AM 68.0 °F - 64.4 °F 88% 30.08 in 10.0 mi ENE 3.5 mph - N/A   Mostly Cloudy
5:45 AM 68.0 °F - 64.4 °F 88% 30.08 in 10.0 mi Calm Calm - N/A   Scattered Clouds
5:56 AM 68.9 °F - 63.9 °F 84% 30.03 in 10.0 mi Calm Calm - N/A   Clear
6:56 AM 66.9 °F - 64.9 °F 93% 30.06 in 10.0 mi NNE 4.6 mph - N/A   Clear
7:56 AM 72.9 °F - 64.9 °F 76% 30.06 in 10.0 mi East 3.5 mph - N/A   Scattered Clouds
8:27 AM 77.0 °F - 64.4 °F 65% 30.13 in 10.0 mi East 5.8 mph - N/A   Mostly Cloudy
8:56 AM 77.9 °F - 64.9 °F 64% 30.07 in 10.0 mi WSW 4.6 mph - N/A   Mostly Cloudy
9:25 AM 77.0 °F - 64.4 °F 65% 30.14 in 10.0 mi East 6.9 mph - N/A   Scattered Clouds
9:56 AM 79.9 °F - 63.9 °F 58% 30.07 in 10.0 mi NE 13.8 mph - N/A   Clear
10:56 AM 82.4 °F 83.9 °F 64.4 °F 54% 30.11 in 10.0 mi ENE 16.1 mph 24.2 mph N/A   Mostly Cloudy
11:19 AM 82.4 °F 83.9 °F 64.4 °F 54% 30.10 in 10.0 mi ENE 25.3 mph 32.2 mph N/A   Mostly Cloudy
11:56 AM 82.9 °F 84.6 °F 64.9 °F 54% 30.01 in 10.0 mi NE 24.2 mph 28.8 mph N/A   Clear
12:56 PM 79.0 °F - 63.9 °F 60% 30.00 in 10.0 mi NE 18.4 mph 26.5 mph N/A   Overcast
1:56 PM 81.9 °F 83.2 °F 63.9 °F 54% 29.97 in 10.0 mi NE 23.0 mph 29.9 mph N/A   Clear
2:56 PM 79.9 °F - 63.9 °F 58% 29.96 in 9.0 mi NE 25.3 mph 33.4 mph N/A   Clear
3:56 PM 77.9 °F - 64.9 °F 64% 29.97 in 8.0 mi NE 25.3 mph 33.4 mph N/A   Clear
4:56 PM 75.9 °F - 63.9 °F 66% 29.98 in 10.0 mi ENE 18.4 mph 26.5 mph N/A   Clear
5:56 PM 72.0 °F - 63.0 °F 73% 30.00 in 10.0 mi NE 17.3 mph - N/A   Clear
6:56 PM 72.0 °F - 64.9 °F 78% 30.02 in 10.0 mi NE 19.6 mph 24.2 mph N/A   Clear
7:56 PM 70.9 °F - 64.9 °F 81% 30.03 in 10.0 mi NE 23.0 mph - N/A   Clear
8:56 PM 70.9 °F - 63.9 °F 78% 30.03 in 10.0 mi ENE 17.3 mph - N/A   Clear
9:56 PM 70.9 °F - 64.9 °F 81% 30.04 in 10.0 mi NE 11.5 mph - N/A   Clear
10:56 PM 68.9 °F - 63.9 °F 84% 30.04 in 10.0 mi NE 10.4 mph - N/A   Clear
11:56 PM 70.0 °F - 64.9 °F 84% 30.03 in 10.0 mi NNE 8.1 mph - N/A   Clear